Regional Weather Roundup
Issued by NWS

Home | Current Version | Previous Version | Text Only | Print | Product List | Glossary Off
Versions: 1 2 3 4 5 6 7 8 9 10 11 12 13 14 15 16 17 18 19 20 21 22 23 24 25 26 27 28 29 30 31 32 33 34 35 36 37 38 39 40 41 42 43 44 45 46 47 48 49 50

057
ASUS43 KFSD 240902
RWRSD

WEATHER ROUNDUP FOR SOUTH DAKOTA
NATIONAL WEATHER SERVICE SIOUX FALLS SD
300 AM CST FRI NOV 24 2017

NOTE: "FAIR" INDICATES FEW OR NO CLOUDS BELOW 12,000 FEET WITH NO
SIGNIFICANT WEATHER AND/OR OBSTRUCTIONS TO VISIBILITY.


SDZ001>005-009-010-012>017-241000-
NORTHWEST AND NORTH CENTRAL SOUTH DAKOTA

CITY           SKY/WX    TMP DP  RH WIND       PRES   REMARKS
FAITH            N/A     53  36  52 SW13      29.49F
MOBRIDGE       CLEAR     45  34  65 CALM      29.40F
$$

SDZ012>016-024>037-041>051-057-063-072>074-241000-
SOUTHWEST AND SOUTH CENTRAL SOUTH DAKOTA

CITY           SKY/WX    TMP DP  RH WIND       PRES   REMARKS
RAPID CTY ARPT CLEAR     56  31  38 SW6       29.55F
PIERRE         CLEAR     47  37  68 W8        29.48S
CUSTER         CLEAR     50  30  46 W14G23    29.67S
ELLSWORTH AFB  CLEAR     54  31  42 W16       29.54F
PHILIP         CLEAR     48  38  68 W12       29.52F
PINE RIDGE     CLEAR     46  37  71 SW6       29.65R
SPEARFISH      FAIR      63  30  29 W17G28    29.56F
WINNER         FAIR      51  37  58 SW7       29.52F
$$

SDZ004>011-016>023-039-040-241000-
NORTHEAST SOUTH DAKOTA

CITY           SKY/WX    TMP DP  RH WIND       PRES   REMARKS
ABERDEEN       PTCLDY    34  32  92 S7        29.42S WCI  28
WATERTOWN      CLEAR     35  33  92 S6        29.44F
BROOKINGS      CLEAR     43  37  79 S6        29.48F
SISSETON         N/A     52  39  61 SW17      29.35F
$$

SDZ017-020-022-023-036>040-048>070-241000-
SOUTHEAST SOUTH DAKOTA

CITY           SKY/WX    TMP DP  RH WIND       PRES   REMARKS
SIOUX FALLS    CLEAR     41  37  86 CALM      29.50F
HURON          CLEAR     39  35  86 SE5       29.44F
CHAMBERLAIN    CLEAR     45  38  77 W5        29.50S
MITCHELL       CLEAR     48  38  68 SW7       29.48F
YANKTON        CLEAR     51  41  68 SW10      29.51F
$$

ABBREVIATIONS USED IN REMARKS
   TC - TEMPERATURE IN CELSIUS
  WCI - WIND CHILL INDEX
   HX - HEAT INDEX
  VSB - VISIBILITY





USA.gov is the U.S. government's official web portal to all federal, state and local government web resources and services.